Tracking 30990 objects as of 8-Jul-2025
HD Live streaming from Space Station
objects crossing your sky now

STARLINK-1190

Track STARLINK-1190 now!
10-day predictions
STARLINK-1190 is classified as:


NORAD ID: 45083
Int'l Code: 2020-006AR
Perigee: 396.1 km
Apogee: 397.9 km
Inclination: 53.1 °
Period: 92.4 minutes
Semi major axis: 6767 km
RCS: Unknown
Launch date: January 29, 2020
Source: United States (US)
Launch site: AIR FORCE EASTERN TEST RANGE (AFETR)
Your satellite tracking list
Your tracking list is empty




NASA's NSSDC Master Catalog

Two Line Element Set (TLE):
1 45083U 20006AR  25188.91668981  .00030599  00000-0  38752-3 0  9994
2 45083  53.0541 289.9940 0001374  51.9975  37.7490 15.59241609  5885
Source of the keplerian elements: AFSPC